Location: Leuk
(46.3174°N, 7.6341°E)
Time: 06:40:23
(UTC+00:00)

NOSS 0 Rocket - Pass Details

Date: 09 March 2021
Orbit: 936 x 954 km, 70.0° (Epoch: 18 April)

Event Time Altitude Azimuth Distance (km) Brightness Sun altitude
Rises 05:16:08 0° 326° (NW) 3,611 6.7 -7.3°
Reaches altitude 10° 05:18:47 10° 319° (NW) 2,665 5.9 -6.8°
Maximum altitude 05:24:29 40° 252° (WSW) 1,352 4.4 -5.9°
Drops below altitude 10° 05:30:11 10° 185° (S) 2,660 6.3 -4.9°
Sets 05:32:51 0° 178° (S) 3,604 7.0 -4.4°
